Weather in Krasnyj Yar

Russia / Tyumen Oblast     57°28′00″N   65°58′03″E
temp.,
°C
wind,
m/s
gust,
m/s
humid.,
%
clouds,
%
prec.,
mm/h
press.,
hPa
HPBL,
m
16 may, sun
sun1623:00+21wnw395143 0.2 1015201
02:00+18w2469100 0.0 101689
05:00+18w3964100 0.0 1016221
08:00+22w365434 0.0 1017481
11:00+27w463961 0.1 10161291
14:00+31wnw6112751 0.0 10152739
17:00+31wnw592524 0.0 10153012
20:00+26w243877 0.0 101457
17 may, mon
mon1723:00+22wsw384398 0.0 1015143
02:00+20w3104645 0.0 1015197
05:00+19wsw412513 0.0 1015259
08:00+24w48425 0.0 1015410
11:00+30w6112625 0.0 10153165
14:00+31w6112092 0.0 10134090
17:00+30w61123100 0.0 10123019
20:00+19nnw311605 0.3 1013370
18 may, tue
tue1823:00+18w256185 0.3 101397
02:00+16wsw387755 0.8 1013142
05:00+16w257339 0.8 101293
08:00+20wnw48626 0.0 1011453
11:00+23nw61039100 0.0 10112667
14:00+22nw794157 0.0 10122315
17:00+19nw7115939 0.0 10131421
20:00+14n61073100 0.1 10161151
19 may, wed
wed1923:00+11n61277100 0.1 1019935
02:00+10n511769 0.0 1021849
05:00+9n411660 0.0 1023644
08:00+12nne58440 0.0 10241072
11:00+15n57355 0.0 10251540
14:00+17nne562996 0.0 10251737
17:00+16nne4532100 0.0 10251486
20:00+13ne24435 0.0 1026106
20 may, thu
thu2023:00+9e2253100 0.0 102722
02:00+8se115534 0.0 102712
05:00+7s235775 0.0 102847
08:00+14sw354031 0.0 1027498
11:00+19wsw343533 0.0 10251138
14:00+23wsw46295 0.0 10221761
17:00+25wsw57265 0.0 10211994
20:00+20sw384129 0.0 1020194